Regional Weather Roundup
Issued by NWS Glasgow, MT

Home | Current Version | Previous Version | Text Only | Print | Product List | Glossary On
Versions: 1 2 3 4 5 6 7 8 9 10 11 12 13 14 15 16 17 18 19 20 21 22 23 24 25 26 27 28 29 30 31 32 33 34 35 36 37 38 39 40 41 42 43 44 45 46 47 48 49 50
376
ASUS45 KGGW 280115
RWRGGW
HOURLY REGIONAL WEATHER ROUNDUP FOR NORTHEAST MONTANA
NATIONAL WEATHER SERVICE GLASGOW MONTANA
700 PM MDT MON MAR 27 2017

NOTE: "FAIR" INDICATES FEW OR NO CLOUDS BELOW 12,000 FEET WITH NO
SIGNIFICANT WEATHER AND/OR OBSTRUCTIONS TO VISISBILITY.

NORTHEAST MONTANA


CITY           SKY/WX    TMP DP  RH WIND       PRES   REMARKS
GLASGOW        CLOUDY    53  34  48 E8        29.89R
PLENTYWOOD       N/A     48  36  63 E12G20      N/A
WOLF POINT     CLOUDY    53  39  59 E13       29.90R
JORDAN           N/A     56  33  42 N8        29.88R
WINNETT          N/A     54  34  46 SW3G14      N/A
SIDNEY         CLOUDY    52  38  58 NE10      29.91R
GLENDIVE       CLOUDY    53  36  52 NE18G24   29.86R
MALTA            N/A     49  37  63 NE10        N/A
SCOBEY           N/A     49  31  50 NE7       29.92

FORT PECK REPORTS


CITY           SKY/WX    TMP DP  RH WIND       PRES   REMARKS
FORT PECK        N/A     51  36  56 NE12G20     N/A
THE PINES        N/A     54  33  45 NE1         N/A

SOUTHEAST MONTANA


CITY           SKY/WX    TMP DP  RH WIND       PRES   REMARKS
BILLINGS       CLOUDY    55  31  39 N10       29.86R
MILES CITY     CLOUDY    57  36  45 NE5       29.85R
BAKER          CLOUDY    55  31  39 SE12      29.87R
LIVINGSTON     CLOUDY    47  31  53 SW8       29.89R

CENTRAL MONTANA


CITY           SKY/WX    TMP DP  RH WIND       PRES   REMARKS
HAVRE          CLOUDY    54  38  54 E10       29.87R
LEWISTOWN      CLOUDY    50  26  39 N5        29.90R
GREAT FALLS    CLOUDY    47  31  53 NW9       29.92R
CUT BANK       CLOUDY    46  30  53 W16       29.92R
HELENA         PTCLDY    50  30  46 W18G24    29.96R
BUTTE          CLOUDY    41  26  55 NW16G22   29.98R
BOZEMAN        LGT RAIN  43  36  76 N16       29.94R

WESTERN MONTANA


CITY           SKY/WX    TMP DP  RH WIND       PRES   REMARKS
MISSOULA       PTCLDY    44  34  67 N9        30.07R
KALISPELL      NOT AVBL

NORTH DAKOTA


CITY           SKY/WX    TMP DP  RH WIND       PRES   REMARKS
WILLISTON      CLOUDY    53  32  44 NE9       29.94R
DICKINSON      CLOUDY    53  26  35 E9        29.87R
MINOT          CLOUDY    36  34  92 N7        29.99R FOG
BISMARCK       CLOUDY    56  32  40 E8        29.93R

SOUTHERN SASKATCHEWAN


CITY           SKY/WX    TMP DP  RH WIND       PRES   REMARKS
REGINA         CLOUDY    39  36  87 E12       30.00R
ESTEVAN        FOG       34  34 100 E16G22    30.00R VSB 3/8
SWIFT CURRENT  CLOUDY    45  34  65 E13       29.92R





USA.gov is the U.S. government's official web portal to all federal, state and local government web resources and services.